カタログに戻る

SKYNET 4A R/B

PAM-D2

運用中HEO
NORAD 20404·ROCKET BODY·🇺🇸 United States

打ち上げ Jan 1, 1990 から Cape Canaveral Space Force Station

Loading…

次のパス (今後24時間)

TLE

最新Source: Space-Track

元期: Sep 13, 2026, 16:45 UTC

1 20404U 90001D   26256.69793239  .00001142  00000-0  12120-2 0  9995
2 20404  21.5772  63.6301 7022801 101.0678 338.8442  2.56667915313891

AllMySatでSKYNET 4A R/Bをリアルタイム追跡

Download on the App Store